Location: Centerville
(32.8776°N, 96.6203°W)
Time: 02:19:23
(UTC+00:00)

Cosmos 1110 Rocket - Pass Details

Date: 17 June 2021
Orbit: 752 x 782 km, 74.0° (Epoch: 27 July)

Event Time Altitude Azimuth Distance (km) Brightness Sun altitude
Exits shadow 03:15:25 30° 145° (SE) 1,313 4.6 -17.5°
Maximum altitude 03:17:12 41° 101° (ESE) 1,083 4.4 -17.7°
Drops below altitude 10° 03:22:02 10° 33° (NNE) 2,286 6.6 -18.5°
Sets 03:24:31 0° 26° (NNE) 3,218 7.5 -18.8°
